Location: Sungai Laei
(2.6000°N, 113.7167°E)
Time: 10:43:16
(UTC+00:00)

SL-08 R/B - Pass Details

Date: 22 May 2022
Orbit: 674 x 737 km, 98.5° (Epoch: 06 July)

Event Time Altitude Azimuth Distance (km) Brightness Sun altitude
Rises 21:24:44 0° 183° (S) 3,044 6.4 -12.4°
Reaches altitude 10° 21:27:08 10° 192° (SSW) 2,119 5.5 -11.9°
Maximum altitude 21:31:21 36° 258° (WSW) 1,076 3.8 -10.9°
Drops below altitude 10° 21:35:32 10° 324° (NW) 2,098 5.6 -9.9°
Sets 21:37:54 0° 333° (NNW) 3,009 6.5 -9.4°
